Location: ?
(35.4554°N, 139.3092°E)
Time: 21:09:58
(UTC+00:00)

MSX - Pass Details

Date: 21 April 2021
Orbit: 895 x 905 km, 98.8° (Epoch: 10 May)

Event Time Altitude Azimuth Distance (km) Brightness Sun altitude
Rises 18:22:33 0° 4° (N) 3,524 7.4 -19.4°
Reaches altitude 10° 18:25:05 10° 357° (N) 2,581 6.6 -18.9°
Maximum altitude 18:30:23 40° 290° (WNW) 1,310 4.4 -18.0°
Enters shadow 18:32:36 29° 245° (WSW) 1,605 4.5 -17.6°
